TimeMST,TemperatureF,Dew PointF,Humidity,Sea Level PressureIn,VisibilityMPH,Wind Direction,Wind SpeedMPH,Gust SpeedMPH,PrecipitationIn,Events,Conditions,WindDirDegrees,DateUTC
12:15 AM,1.4,-0.4,92,30.34,10.0,NNE,5.8,-,N/A,,Clear,20,2013-01-21 07:15:00
12:35 AM,1.4,1.4,100,30.34,10.0,NNE,6.9,-,N/A,,Clear,20,2013-01-21 07:35:00
12:55 AM,1.4,1.4,100,30.33,10.0,North,4.6,-,N/A,,Clear,360,2013-01-21 07:55:00
1:15 AM,-0.4,-2.2,92,30.33,10.0,NNE,8.1,-,N/A,,Clear,20,2013-01-21 08:15:00
1:35 AM,-0.4,-0.4,100,30.33,10.0,NNE,4.6,-,N/A,,Clear,30,2013-01-21 08:35:00
2:15 AM,-2.2,-4.0,92,30.34,10.0,North,6.9,-,N/A,,Clear,10,2013-01-21 09:15:00
2:35 AM,-2.2,-4.0,92,30.34,10.0,NE,4.6,-,N/A,,Clear,40,2013-01-21 09:35:00
2:55 AM,-0.4,-2.2,92,30.34,10.0,North,5.8,-,N/A,,Clear,10,2013-01-21 09:55:00
3:15 AM,-4.0,-5.8,92,30.34,10.0,NNE,3.5,-,N/A,,Clear,20,2013-01-21 10:15:00
3:35 AM,-4.0,-5.8,92,30.33,10.0,NNE,6.9,-,N/A,,Clear,20,2013-01-21 10:35:00
3:55 AM,-5.8,-5.8,100,30.34,10.0,North,9.2,-,N/A,,Clear,350,2013-01-21 10:55:00
4:35 AM,-2.2,-5.8,85,30.33,10.0,NE,3.5,-,N/A,,Clear,40,2013-01-21 11:35:00
4:55 AM,-2.2,-4.0,92,30.34,10.0,NNW,6.9,-,N/A,,Clear,340,2013-01-21 11:55:00
5:15 AM,-4.0,-5.8,92,30.34,10.0,NE,6.9,-,N/A,,Clear,50,2013-01-21 12:15:00
5:35 AM,-2.2,-4.0,92,30.34,10.0,Calm,Calm,-,N/A,,Clear,0,2013-01-21 12:35:00
5:55 AM,-2.2,-4.0,92,30.34,10.0,North,6.9,-,N/A,,Mostly Cloudy,350,2013-01-21 12:55:00
6:15 AM,-5.8,-7.6,92,30.34,10.0,North,5.8,-,N/A,,Scattered Clouds,10,2013-01-21 13:15:00
6:35 AM,-4.0,-5.8,92,30.34,10.0,NE,3.5,-,N/A,,Clear,40,2013-01-21 13:35:00
6:53 AM,-2.2,-2.2,100,30.33,10.0,Calm,Calm,-,N/A,,Clear,0,2013-01-21 13:53:00
7:55 AM,-5.8,-7.6,92,30.35,10.0,North,4.6,-,N/A,,Clear,10,2013-01-21 14:55:00
8:53 AM,-4.0,-5.8,92,30.35,10.0,NE,3.5,-,N/A,,Clear,40,2013-01-21 15:53:00
10:57 AM,6.8,3.2,85,30.36,10.0,East,3.5,-,N/A,,Clear,90,2013-01-21 17:57:00
11:51 AM,12.2,6.8,79,30.35,10.0,Calm,Calm,-,N/A,,Clear,0,2013-01-21 18:51:00
12:54 PM,17.6,8.6,68,30.31,10.0,Calm,Calm,-,N/A,,Clear,0,2013-01-21 19:54:00
1:51 PM,17.6,10.4,73,30.30,10.0,Calm,Calm,-,N/A,,Clear,0,2013-01-21 20:51:00
2:51 PM,19.4,12.2,74,30.28,10.0,Calm,Calm,-,N/A,,Clear,0,2013-01-21 21:51:00
3:59 PM,17.6,12.2,79,30.27,10.0,Calm,Calm,-,N/A,,Clear,0,2013-01-21 22:59:00
4:51 PM,17.6,10.4,73,30.25,10.0,SE,3.5,-,N/A,,Clear,130,2013-01-21 23:51:00
5:51 PM,12.2,8.6,85,30.24,10.0,North,6.9,-,N/A,,Clear,360,2013-01-22 00:51:00
6:51 PM,6.8,3.2,85,30.25,10.0,North,4.6,-,N/A,,Clear,10,2013-01-22 01:51:00
7:51 PM,8.6,5.0,85,30.26,10.0,North,5.8,-,N/A,,Clear,350,2013-01-22 02:51:00
8:53 PM,6.8,3.2,85,30.27,10.0,North,5.8,-,N/A,,Clear,10,2013-01-22 03:53:00
8:55 PM,5.0,1.4,85,30.27,10.0,NNE,5.8,-,N/A,,Clear,30,2013-01-22 03:55:00
9:15 PM,5.0,3.2,92,30.27,10.0,Calm,Calm,-,N/A,,Clear,0,2013-01-22 04:15:00
9:35 PM,6.8,3.2,85,30.27,10.0,Calm,Calm,-,N/A,,Clear,0,2013-01-22 04:35:00
9:55 PM,5.0,3.2,92,30.27,10.0,North,11.5,-,N/A,,Clear,360,2013-01-22 04:55:00
10:35 PM,5.0,3.2,92,30.28,10.0,North,6.9,-,N/A,,Clear,10,2013-01-22 05:35:00
10:55 PM,3.2,1.4,92,30.28,10.0,Calm,Calm,-,N/A,,Clear,0,2013-01-22 05:55:00
11:15 PM,3.2,3.2,100,30.28,10.0,North,3.5,-,N/A,,Clear,10,2013-01-22 06:15:00